Tracking 29892 objects as of 21-Nov-2024
HD Live streaming from Space Station
objects crossing your sky now

COSMOS 1818 COOLANT

Track COSMOS 1818 COOLANT now!
10-day predictions


NORAD ID: 50787
Int'l Code: 1987-011BC
Perigee: 758.5 km
Apogee: 787.8 km
Inclination: 65.0 °
Period: 100.2 minutes
Semi major axis: 7144 km
RCS: Unknown
Launch date: February 1, 1987
Source: Commonwealth of Independent States (former USSR) (CIS)
Launch site: TYURATAM MISSILE AND SPACE COMPLEX (TTMTR)

Note: This is SATELLITE DEBRIS
Your satellite tracking list
Your tracking list is empty




NASA's NSSDC Master Catalog

Two Line Element Set (TLE):
1 50787U 87011BC  24323.89500021  .00001672  00000-0  58658-3 0  9994
2 50787  65.0111   9.2835 0020503 253.1966 279.7725 14.37737343663053
Source of the keplerian elements: AFSPC